Year,Month,Day,Hour,Minute,Value (Times are PST for temperature in C)
2017,06,26,00,00,16.70
2017,06,26,00,01,16.70
2017,06,26,00,02,16.70
2017,06,26,00,03,16.70
2017,06,26,00,04,16.70
2017,06,26,00,05,16.80
2017,06,26,00,06,17.40
2017,06,26,00,07,17.40
2017,06,26,00,08,17.40
2017,06,26,00,09,17.50
2017,06,26,00,10,17.70
2017,06,26,00,11,17.70
2017,06,26,00,12,17.90
2017,06,26,00,13,18.40
2017,06,26,00,14,18.70
2017,06,26,00,15,18.70
2017,06,26,00,16,18.90
2017,06,26,00,17,18.90
2017,06,26,00,18,18.70
2017,06,26,00,19,18.60
2017,06,26,00,20,18.40
2017,06,26,00,21,18.20
2017,06,26,00,22,18.00
2017,06,26,00,23,17.80
2017,06,26,00,24,17.70
2017,06,26,00,25,17.90
2017,06,26,00,26,18.10
2017,06,26,00,27,18.30
2017,06,26,00,28,18.70
2017,06,26,00,29,18.90
2017,06,26,00,30,18.80
2017,06,26,00,31,18.30
2017,06,26,00,32,17.80
2017,06,26,00,33,17.40
2017,06,26,00,34,17.00
2017,06,26,00,35,16.70
2017,06,26,00,36,16.60
2017,06,26,00,37,16.60
2017,06,26,00,38,16.60
2017,06,26,00,39,16.50
2017,06,26,00,40,16.10
2017,06,26,00,41,15.80
2017,06,26,00,42,15.70
2017,06,26,00,43,15.70
2017,06,26,00,44,15.70
2017,06,26,00,45,15.60
2017,06,26,00,46,15.80
2017,06,26,00,47,16.20
2017,06,26,00,48,16.50
2017,06,26,00,49,16.70
2017,06,26,00,50,16.70
2017,06,26,00,51,16.70
2017,06,26,00,52,16.70
2017,06,26,00,53,16.80
2017,06,26,00,54,17.10
2017,06,26,00,55,17.30
2017,06,26,00,56,17.40
2017,06,26,00,57,17.50
2017,06,26,00,58,17.60
2017,06,26,00,59,17.60
2017,06,26,01,00,17.60
2017,06,26,01,01,17.70
2017,06,26,01,02,17.90
2017,06,26,01,03,18.00
2017,06,26,01,04,18.20
2017,06,26,01,05,18.90
2017,06,26,01,06,19.70
2017,06,26,01,07,20.40
2017,06,26,01,08,20.90
2017,06,26,01,09,21.20
2017,06,26,01,10,21.10
2017,06,26,01,11,20.40
2017,06,26,01,12,20.00
2017,06,26,01,13,19.50
2017,06,26,01,14,19.20
2017,06,26,01,15,19.00
2017,06,26,01,16,18.70
2017,06,26,01,17,18.40
2017,06,26,01,18,18.20
2017,06,26,01,19,18.00
2017,06,26,01,20,17.90
2017,06,26,01,21,17.90
2017,06,26,01,22,18.20
2017,06,26,01,23,19.40
2017,06,26,01,24,20.30
2017,06,26,01,25,20.10
2017,06,26,01,26,19.40
2017,06,26,01,27,18.60
2017,06,26,01,28,18.10
2017,06,26,01,29,17.80
2017,06,26,01,30,17.70
2017,06,26,01,31,17.80
2017,06,26,01,32,17.80
2017,06,26,01,33,17.80
2017,06,26,01,34,17.60
2017,06,26,01,35,17.30
2017,06,26,01,36,17.00
2017,06,26,01,37,16.90
2017,06,26,01,38,16.80
2017,06,26,01,39,16.90
2017,06,26,01,40,17.00
2017,06,26,01,41,17.00
2017,06,26,01,42,17.20
2017,06,26,01,43,17.20
2017,06,26,01,44,17.30
2017,06,26,01,45,17.50
2017,06,26,01,46,17.60
2017,06,26,01,47,17.60
2017,06,26,01,48,17.60
2017,06,26,01,49,17.60
2017,06,26,01,50,17.60
2017,06,26,01,51,17.70
2017,06,26,01,52,17.90
2017,06,26,01,53,18.10
2017,06,26,01,54,18.20
2017,06,26,01,55,18.30
2017,06,26,01,56,18.40
2017,06,26,01,57,18.60
2017,06,26,01,58,18.60
2017,06,26,01,59,18.50
2017,06,26,02,00,18.50
2017,06,26,02,01,18.40
2017,06,26,02,02,18.50
2017,06,26,02,03,18.40
2017,06,26,02,04,18.20
2017,06,26,02,05,17.90
2017,06,26,02,06,17.60
2017,06,26,02,07,17.40
2017,06,26,02,08,17.30
2017,06,26,02,09,17.20
2017,06,26,02,10,17.00
2017,06,26,02,11,17.10
2017,06,26,02,12,17.20
2017,06,26,02,13,17.10
2017,06,26,02,14,17.00
2017,06,26,02,15,16.90
2017,06,26,02,16,16.80
2017,06,26,02,17,16.80
2017,06,26,02,18,16.80
2017,06,26,02,19,16.90
2017,06,26,02,20,16.90
2017,06,26,02,21,17.10
2017,06,26,02,22,17.30
2017,06,26,02,23,17.50
2017,06,26,02,24,17.60
2017,06,26,02,25,17.70
2017,06,26,02,26,17.90
2017,06,26,02,27,18.00
2017,06,26,02,28,17.90
2017,06,26,02,29,17.80
2017,06,26,02,30,17.70
2017,06,26,02,31,17.60
2017,06,26,02,32,17.50
2017,06,26,02,33,17.30
2017,06,26,02,34,17.20
2017,06,26,02,35,17.30
2017,06,26,02,36,17.50
2017,06,26,02,37,17.70
2017,06,26,02,38,17.80
2017,06,26,02,39,17.90
2017,06,26,02,40,17.80
2017,06,26,02,41,17.70
2017,06,26,02,42,17.50
2017,06,26,02,43,17.50
2017,06,26,02,44,17.70
2017,06,26,02,45,17.80
2017,06,26,02,46,17.80
2017,06,26,02,47,17.80
2017,06,26,02,48,17.80
2017,06,26,02,49,17.90
2017,06,26,02,50,17.90
2017,06,26,02,51,17.80
2017,06,26,02,52,17.60
2017,06,26,02,53,17.40
2017,06,26,02,54,17.30
2017,06,26,02,55,17.10
2017,06,26,02,56,17.00
2017,06,26,02,57,16.90
2017,06,26,02,58,16.80
2017,06,26,02,59,16.70
2017,06,26,03,00,16.60
2017,06,26,03,01,16.60
2017,06,26,03,02,16.60
2017,06,26,03,03,16.60
2017,06,26,03,04,16.40
2017,06,26,03,05,16.20
2017,06,26,03,06,16.20
2017,06,26,03,07,16.10
2017,06,26,03,08,16.00
2017,06,26,03,09,15.90
2017,06,26,03,10,15.90
2017,06,26,03,11,15.90
2017,06,26,03,12,16.10
2017,06,26,03,13,16.30
2017,06,26,03,14,16.40
2017,06,26,03,15,16.40
2017,06,26,03,16,16.30
2017,06,26,03,17,16.20
2017,06,26,03,18,16.00
2017,06,26,03,19,15.80
2017,06,26,03,20,15.60
2017,06,26,03,21,15.50
2017,06,26,03,22,15.40
2017,06,26,03,23,15.30
2017,06,26,03,24,15.10
2017,06,26,03,25,15.10
2017,06,26,03,26,15.00
2017,06,26,03,27,14.90
2017,06,26,03,28,14.80
2017,06,26,03,29,14.70
2017,06,26,03,30,14.60
2017,06,26,03,31,14.40
2017,06,26,03,32,14.30
2017,06,26,03,33,14.10
2017,06,26,03,34,14.00
2017,06,26,03,35,13.90
2017,06,26,03,36,13.90
2017,06,26,03,37,13.90
2017,06,26,03,38,13.80
2017,06,26,03,39,13.70
2017,06,26,03,40,13.70
2017,06,26,03,41,13.60
2017,06,26,03,42,13.60
2017,06,26,03,43,13.50
2017,06,26,03,44,13.50
2017,06,26,03,45,13.50
2017,06,26,03,46,13.50
2017,06,26,03,47,13.40
2017,06,26,03,48,13.40
2017,06,26,03,49,13.40
2017,06,26,03,50,13.40
2017,06,26,03,51,13.50
2017,06,26,03,52,13.50
2017,06,26,03,53,13.60
2017,06,26,03,54,13.50
2017,06,26,03,55,13.40
2017,06,26,03,56,13.30
2017,06,26,03,57,13.30
2017,06,26,03,58,13.30
2017,06,26,03,59,13.20
2017,06,26,04,00,13.20
2017,06,26,04,01,13.10
2017,06,26,04,02,13.00
2017,06,26,04,03,13.00
2017,06,26,04,04,12.90
2017,06,26,04,05,12.90
2017,06,26,04,06,12.90
2017,06,26,04,07,12.90
2017,06,26,04,08,12.90
2017,06,26,04,09,12.90
2017,06,26,04,10,12.90
2017,06,26,04,11,13.00
2017,06,26,04,12,13.00
2017,06,26,04,13,13.00
2017,06,26,04,14,13.00
2017,06,26,04,15,13.00
2017,06,26,04,16,13.00
2017,06,26,04,17,12.90
2017,06,26,04,18,13.00
2017,06,26,04,19,13.00
2017,06,26,04,20,13.00
2017,06,26,04,21,13.00
2017,06,26,04,22,13.00
2017,06,26,04,23,13.00
2017,06,26,04,24,13.00
2017,06,26,04,25,13.00
2017,06,26,04,26,12.90
2017,06,26,04,27,13.00
2017,06,26,04,28,13.00
2017,06,26,04,29,13.00
2017,06,26,04,30,13.00
2017,06,26,04,31,13.00
2017,06,26,04,32,13.00
2017,06,26,04,33,13.20
2017,06,26,04,34,13.20
2017,06,26,04,35,13.20
2017,06,26,04,36,13.30
2017,06,26,04,37,13.60
2017,06,26,04,38,13.90
2017,06,26,04,39,14.00
2017,06,26,04,40,14.00
2017,06,26,04,41,14.00
2017,06,26,04,42,14.10
2017,06,26,04,43,14.10
2017,06,26,04,44,14.10
2017,06,26,04,45,14.20
2017,06,26,04,46,14.20
2017,06,26,04,47,14.20
2017,06,26,04,48,14.10
2017,06,26,04,49,14.10
2017,06,26,04,50,14.10
2017,06,26,04,51,14.00
2017,06,26,04,52,14.00
2017,06,26,04,53,13.90
2017,06,26,04,54,13.80
2017,06,26,04,55,13.60
2017,06,26,04,56,13.50
2017,06,26,04,57,13.40
2017,06,26,04,58,13.40
2017,06,26,04,59,13.30
2017,06,26,05,00,13.30
2017,06,26,05,01,13.40
2017,06,26,05,02,13.40
2017,06,26,05,03,13.40
2017,06,26,05,04,13.40
2017,06,26,05,05,13.20
2017,06,26,05,06,13.10
2017,06,26,05,07,13.00
2017,06,26,05,08,12.90
2017,06,26,05,09,12.80
2017,06,26,05,10,12.70
2017,06,26,05,11,12.60
2017,06,26,05,12,12.50
2017,06,26,05,13,12.50
2017,06,26,05,14,12.50
2017,06,26,05,15,12.50
2017,06,26,05,16,12.40
2017,06,26,05,17,12.40
2017,06,26,05,18,12.50
2017,06,26,05,19,12.50
2017,06,26,05,20,12.50
2017,06,26,05,21,12.50
2017,06,26,05,22,12.50
2017,06,26,05,23,12.60
2017,06,26,05,24,12.60
2017,06,26,05,25,12.60
2017,06,26,05,26,12.60
2017,06,26,05,27,12.60
2017,06,26,05,28,12.60
2017,06,26,05,29,12.60
2017,06,26,05,30,12.60
2017,06,26,05,31,12.50
2017,06,26,05,32,12.50
2017,06,26,05,33,12.50
2017,06,26,05,34,12.40
2017,06,26,05,35,12.40
2017,06,26,05,36,12.40
2017,06,26,05,37,12.40
2017,06,26,05,38,12.30
2017,06,26,05,39,12.30
2017,06,26,05,40,12.30
2017,06,26,05,41,12.40
2017,06,26,05,42,12.40
2017,06,26,05,43,12.40
2017,06,26,05,44,12.40
2017,06,26,05,45,12.50
2017,06,26,05,46,12.60
2017,06,26,05,47,12.60
2017,06,26,05,48,12.60
2017,06,26,05,49,12.70
2017,06,26,05,50,12.80
2017,06,26,05,51,12.90
2017,06,26,05,52,12.90
2017,06,26,05,53,13.00
2017,06,26,05,54,13.00
2017,06,26,05,55,13.00
2017,06,26,05,56,13.10
2017,06,26,05,57,13.10
2017,06,26,05,58,13.10
2017,06,26,05,59,13.10
2017,06,26,06,00,13.10
2017,06,26,06,01,13.10
2017,06,26,06,02,13.20
2017,06,26,06,03,13.20
2017,06,26,06,04,13.20
2017,06,26,06,05,13.20
2017,06,26,06,06,13.20
2017,06,26,06,07,13.20
2017,06,26,06,08,13.20
2017,06,26,06,09,13.20
2017,06,26,06,10,13.20
2017,06,26,06,11,13.20
2017,06,26,06,12,13.20
2017,06,26,06,13,13.10
2017,06,26,06,14,13.10
2017,06,26,06,15,13.10
2017,06,26,06,16,13.20
2017,06,26,06,17,13.20
2017,06,26,06,18,13.30
2017,06,26,06,19,13.40
2017,06,26,06,20,13.40
2017,06,26,06,21,13.40
2017,06,26,06,22,13.30
2017,06,26,06,23,13.10
2017,06,26,06,24,12.90
2017,06,26,06,25,12.70
2017,06,26,06,26,12.60
2017,06,26,06,27,12.50
2017,06,26,06,28,12.50
2017,06,26,06,29,12.40
2017,06,26,06,30,12.40
2017,06,26,06,31,12.40
2017,06,26,06,32,12.40
2017,06,26,06,33,12.40
2017,06,26,06,34,12.50
2017,06,26,06,35,12.50
2017,06,26,06,36,12.40
2017,06,26,06,37,12.30
2017,06,26,06,38,12.20
2017,06,26,06,39,12.20
2017,06,26,06,40,12.20
2017,06,26,06,41,12.20
2017,06,26,06,42,12.20
2017,06,26,06,43,12.20
2017,06,26,06,44,12.20
2017,06,26,06,45,12.20
2017,06,26,06,46,12.20
2017,06,26,06,47,12.10
2017,06,26,06,48,12.10
2017,06,26,06,49,12.00
2017,06,26,06,50,12.00
2017,06,26,06,51,12.00
2017,06,26,06,52,12.00
2017,06,26,06,53,12.00
2017,06,26,06,54,12.00
2017,06,26,06,55,12.00
2017,06,26,06,56,12.00
2017,06,26,06,57,12.00
2017,06,26,06,58,12.00
2017,06,26,06,59,12.10
2017,06,26,07,00,12.10
2017,06,26,07,01,12.10
2017,06,26,07,02,12.10
2017,06,26,07,03,12.10
2017,06,26,07,04,12.10
2017,06,26,07,05,12.10
2017,06,26,07,06,12.30
2017,06,26,07,07,12.40
2017,06,26,07,08,12.50
2017,06,26,07,09,12.60
2017,06,26,07,10,12.60
2017,06,26,07,11,12.60
2017,06,26,07,12,12.60
2017,06,26,07,13,12.50
2017,06,26,07,14,12.40
2017,06,26,07,15,12.50
2017,06,26,07,16,12.40
2017,06,26,07,17,12.40
2017,06,26,07,18,12.50
2017,06,26,07,19,12.50
2017,06,26,07,20,12.60
2017,06,26,07,21,12.60
2017,06,26,07,22,12.70
2017,06,26,07,23,12.70
2017,06,26,07,24,12.70
2017,06,26,07,25,12.70
2017,06,26,07,26,12.70
2017,06,26,07,27,12.70
2017,06,26,07,28,12.60
2017,06,26,07,29,12.50
2017,06,26,07,30,12.50
2017,06,26,07,31,12.50
2017,06,26,07,32,12.50
2017,06,26,07,33,12.50
2017,06,26,07,34,12.60
2017,06,26,07,35,12.60
2017,06,26,07,36,12.70
2017,06,26,07,37,12.70
2017,06,26,07,38,12.60
2017,06,26,07,39,12.50
2017,06,26,07,40,12.50
2017,06,26,07,41,12.50
2017,06,26,07,42,12.50
2017,06,26,07,43,12.50
2017,06,26,07,44,12.60
2017,06,26,07,45,12.60
2017,06,26,07,46,12.70
2017,06,26,07,47,12.80
2017,06,26,07,48,12.80
2017,06,26,07,49,12.90
2017,06,26,07,50,12.90
2017,06,26,07,51,12.90
2017,06,26,07,52,12.80
2017,06,26,07,53,12.80
2017,06,26,07,54,12.70
2017,06,26,07,55,12.60
2017,06,26,07,56,12.60
2017,06,26,07,57,12.50
2017,06,26,07,58,12.40
2017,06,26,07,59,12.30
2017,06,26,08,00,12.30
2017,06,26,08,01,12.30
2017,06,26,08,02,12.30
2017,06,26,08,03,12.30
2017,06,26,08,04,12.30
2017,06,26,08,05,12.30
2017,06,26,08,06,12.40
2017,06,26,08,07,12.40
2017,06,26,08,08,12.60
2017,06,26,08,09,12.80
2017,06,26,08,10,12.90
2017,06,26,08,11,13.00
2017,06,26,08,12,13.20
2017,06,26,08,13,13.20
2017,06,26,08,14,13.20
2017,06,26,08,15,13.20
2017,06,26,08,16,13.30
2017,06,26,08,17,13.40
2017,06,26,08,18,13.60
2017,06,26,08,19,13.70
2017,06,26,08,20,13.70
2017,06,26,08,21,13.80
2017,06,26,08,22,13.90
2017,06,26,08,23,13.80
2017,06,26,08,24,13.60
2017,06,26,08,25,13.50
2017,06,26,08,26,13.40
2017,06,26,08,27,13.40
2017,06,26,08,28,13.40
2017,06,26,08,29,13.20
2017,06,26,08,30,13.10
2017,06,26,08,31,12.80
2017,06,26,08,32,12.70
2017,06,26,08,33,12.60
2017,06,26,08,34,12.50
2017,06,26,08,35,12.30
2017,06,26,08,36,12.20
2017,06,26,08,37,12.10
2017,06,26,08,38,12.10
2017,06,26,08,39,12.00
2017,06,26,08,40,12.00
2017,06,26,08,41,12.40
2017,06,26,08,42,12.70
2017,06,26,08,43,12.90
2017,06,26,08,44,13.20
2017,06,26,08,45,13.40
2017,06,26,08,46,13.70
2017,06,26,08,47,13.90
2017,06,26,08,48,13.70
2017,06,26,08,49,13.40
2017,06,26,08,50,13.40
2017,06,26,08,51,13.30
2017,06,26,08,52,12.90
2017,06,26,08,53,12.60
2017,06,26,08,54,12.50
2017,06,26,08,55,12.30
2017,06,26,08,56,12.30
2017,06,26,08,57,12.30
2017,06,26,08,58,12.20
2017,06,26,08,59,12.00
2017,06,26,09,00,11.90
2017,06,26,09,01,11.90
2017,06,26,09,02,12.10
2017,06,26,09,03,12.00
2017,06,26,09,04,11.80
2017,06,26,09,05,11.80
2017,06,26,09,06,11.70
2017,06,26,09,07,11.70
2017,06,26,09,08,11.60
2017,06,26,09,09,11.50
2017,06,26,09,10,11.40
2017,06,26,09,11,11.40
2017,06,26,09,12,11.40
2017,06,26,09,13,11.40
2017,06,26,09,14,11.40
2017,06,26,09,15,11.40
2017,06,26,09,16,11.40
2017,06,26,09,17,11.30
2017,06,26,09,18,11.30
2017,06,26,09,19,11.30
2017,06,26,09,20,11.30
2017,06,26,09,21,11.30
2017,06,26,09,22,11.30
2017,06,26,09,23,11.30
2017,06,26,09,24,11.30
2017,06,26,09,25,11.30
2017,06,26,09,26,11.20
2017,06,26,09,27,11.20
2017,06,26,09,28,11.30
2017,06,26,09,29,11.30
2017,06,26,09,30,11.30
2017,06,26,09,31,11.30
2017,06,26,09,32,11.40
2017,06,26,09,33,11.50
2017,06,26,09,34,11.60
2017,06,26,09,35,11.90
2017,06,26,09,36,12.00
2017,06,26,09,37,12.00
2017,06,26,09,38,11.90
2017,06,26,09,39,11.80
2017,06,26,09,40,11.80
2017,06,26,09,41,11.80
2017,06,26,09,42,11.80
2017,06,26,09,43,12.00
2017,06,26,09,44,12.20
2017,06,26,09,45,12.40
2017,06,26,09,46,12.20
2017,06,26,09,47,12.10
2017,06,26,09,48,12.00
2017,06,26,09,49,12.00
2017,06,26,09,50,11.90
2017,06,26,09,51,11.80
2017,06,26,09,52,11.70
2017,06,26,09,53,11.70
2017,06,26,09,54,11.70
2017,06,26,09,55,11.70
2017,06,26,09,56,11.70
2017,06,26,09,57,11.60
2017,06,26,09,58,11.70
2017,06,26,09,59,11.70
2017,06,26,10,00,11.70
2017,06,26,10,01,11.70
2017,06,26,10,02,11.70
2017,06,26,10,03,11.70
2017,06,26,10,04,11.70
2017,06,26,10,05,11.60
2017,06,26,10,06,11.60
2017,06,26,10,07,11.60
2017,06,26,10,08,11.50
2017,06,26,10,09,11.50
2017,06,26,10,10,11.40
2017,06,26,10,11,11.40
2017,06,26,10,12,11.40
2017,06,26,10,13,11.40
2017,06,26,10,14,11.30
2017,06,26,10,15,11.30
2017,06,26,10,16,11.30
2017,06,26,10,17,11.30
2017,06,26,10,18,11.30
2017,06,26,10,19,11.30
2017,06,26,10,20,11.30
2017,06,26,10,21,11.40
2017,06,26,10,22,11.30
2017,06,26,10,23,11.30
2017,06,26,10,24,11.40
2017,06,26,10,25,11.40
2017,06,26,10,26,11.50
2017,06,26,10,27,11.50
2017,06,26,10,28,11.60
2017,06,26,10,29,11.60
2017,06,26,10,30,11.60
2017,06,26,10,31,11.70
2017,06,26,10,32,11.80
2017,06,26,10,33,11.80
2017,06,26,10,34,11.90
2017,06,26,10,35,11.90
2017,06,26,10,36,11.90
2017,06,26,10,37,11.90
2017,06,26,10,38,11.90
2017,06,26,10,39,11.90
2017,06,26,10,40,12.00
2017,06,26,10,41,12.00
2017,06,26,10,42,12.00
2017,06,26,10,43,11.90
2017,06,26,10,44,11.90
2017,06,26,10,45,11.90
2017,06,26,10,46,11.90
2017,06,26,10,47,11.90
2017,06,26,10,48,11.90
2017,06,26,10,49,11.80
2017,06,26,10,50,11.80
2017,06,26,10,51,11.80
2017,06,26,10,52,11.80
2017,06,26,10,53,11.80
2017,06,26,10,54,11.80
2017,06,26,10,55,11.90
2017,06,26,10,56,12.00
2017,06,26,10,57,12.10
2017,06,26,10,58,12.20
2017,06,26,10,59,12.40
2017,06,26,11,00,12.50
2017,06,26,11,01,12.60
2017,06,26,11,02,12.80
2017,06,26,11,03,12.90
2017,06,26,11,04,13.00
2017,06,26,11,05,13.10
2017,06,26,11,06,13.10
2017,06,26,11,07,13.10
2017,06,26,11,08,13.10
2017,06,26,11,09,13.10
2017,06,26,11,10,13.10
2017,06,26,11,11,13.10
2017,06,26,11,12,13.10
2017,06,26,11,13,13.00
2017,06,26,11,14,13.00
2017,06,26,11,15,13.00
2017,06,26,11,16,13.10
2017,06,26,11,17,13.30
2017,06,26,11,18,13.30
2017,06,26,11,19,13.30
2017,06,26,11,20,13.40
2017,06,26,11,21,13.30
2017,06,26,11,22,13.30
2017,06,26,11,23,13.20
2017,06,26,11,24,13.30
2017,06,26,11,25,13.30
2017,06,26,11,26,13.20
2017,06,26,11,27,13.10
2017,06,26,11,28,13.10
2017,06,26,11,29,13.00
2017,06,26,11,30,13.10
2017,06,26,11,31,13.10
2017,06,26,11,32,13.10
2017,06,26,11,33,13.10
2017,06,26,11,34,13.20
2017,06,26,11,35,13.10
2017,06,26,11,36,13.20
2017,06,26,11,37,13.30
2017,06,26,11,38,13.20
2017,06,26,11,39,13.10
2017,06,26,11,40,13.10
2017,06,26,11,41,13.20
2017,06,26,11,42,13.20
2017,06,26,11,43,13.10
2017,06,26,11,44,13.10
2017,06,26,11,45,13.00
2017,06,26,11,46,12.90
2017,06,26,11,47,12.90
2017,06,26,11,48,12.80
2017,06,26,11,49,12.90
2017,06,26,11,50,12.90
2017,06,26,11,51,12.80
2017,06,26,11,52,12.80
2017,06,26,11,53,12.70
2017,06,26,11,54,12.80
2017,06,26,11,55,12.90
2017,06,26,11,56,12.90
2017,06,26,11,57,12.90
2017,06,26,11,58,12.90
2017,06,26,11,59,12.90
2017,06,26,12,00,12.90
2017,06,26,12,01,12.90
2017,06,26,12,02,12.80
2017,06,26,12,03,12.80
2017,06,26,12,04,12.80
2017,06,26,12,05,12.70
2017,06,26,12,06,12.70
2017,06,26,12,07,12.70
2017,06,26,12,08,12.70
2017,06,26,12,09,12.70
2017,06,26,12,10,12.70
2017,06,26,12,11,12.70
2017,06,26,12,12,12.60
2017,06,26,12,13,12.60
2017,06,26,12,14,12.50
2017,06,26,12,15,12.40
2017,06,26,12,16,12.40
2017,06,26,12,17,12.40
2017,06,26,12,18,12.30
2017,06,26,12,19,12.30
2017,06,26,12,20,12.40
2017,06,26,12,21,12.40
2017,06,26,12,22,12.40
2017,06,26,12,23,12.40
2017,06,26,12,24,12.50
2017,06,26,12,25,12.50
2017,06,26,12,26,12.40
2017,06,26,12,27,12.40
2017,06,26,12,28,12.40
2017,06,26,12,29,12.50
2017,06,26,12,30,12.50
2017,06,26,12,31,12.40
2017,06,26,12,32,12.40
2017,06,26,12,33,12.40
2017,06,26,12,34,12.40
2017,06,26,12,35,12.50
2017,06,26,12,36,12.50
2017,06,26,12,37,12.60
2017,06,26,12,38,12.60
2017,06,26,12,39,12.70
2017,06,26,12,40,12.70
2017,06,26,12,41,12.70
2017,06,26,12,42,12.70
2017,06,26,12,43,12.70
2017,06,26,12,44,12.70
2017,06,26,12,45,12.70
2017,06,26,12,46,12.70
2017,06,26,12,47,12.70
2017,06,26,12,48,12.70
2017,06,26,12,49,12.70
2017,06,26,12,50,12.70
2017,06,26,12,51,12.70
2017,06,26,12,52,12.60
2017,06,26,12,53,12.60
2017,06,26,12,54,12.60
2017,06,26,12,55,12.50
2017,06,26,12,56,12.50
2017,06,26,12,57,12.40
2017,06,26,12,58,12.40
2017,06,26,12,59,12.40
2017,06,26,13,00,12.40
2017,06,26,13,01,12.40
2017,06,26,13,02,12.40
2017,06,26,13,03,12.30
2017,06,26,13,04,12.30
2017,06,26,13,05,12.30
2017,06,26,13,06,12.40
2017,06,26,13,07,12.40
2017,06,26,13,08,12.40
2017,06,26,13,09,12.40
2017,06,26,13,10,12.40
2017,06,26,13,11,12.30
2017,06,26,13,12,12.30
2017,06,26,13,13,12.30
2017,06,26,13,14,12.30
2017,06,26,13,15,12.30
2017,06,26,13,16,12.30
2017,06,26,13,17,12.30
2017,06,26,13,18,12.20
2017,06,26,13,19,12.20
2017,06,26,13,20,12.20
2017,06,26,13,21,12.20
2017,06,26,13,22,12.20
2017,06,26,13,23,12.10
2017,06,26,13,24,12.10
2017,06,26,13,25,12.10
2017,06,26,13,26,12.00
2017,06,26,13,27,12.00
2017,06,26,13,28,11.90
2017,06,26,13,29,11.90
2017,06,26,13,30,11.90
2017,06,26,13,31,11.90
2017,06,26,13,32,11.90
2017,06,26,13,33,11.90
2017,06,26,13,34,11.90
2017,06,26,13,35,11.90
2017,06,26,13,36,11.90
2017,06,26,13,37,11.90
2017,06,26,13,38,11.90
2017,06,26,13,39,11.90
2017,06,26,13,40,11.90
2017,06,26,13,41,11.90
2017,06,26,13,42,12.00
2017,06,26,13,43,12.00
2017,06,26,13,44,12.10
2017,06,26,13,45,12.10
2017,06,26,13,46,12.10
2017,06,26,13,47,12.10
2017,06,26,13,48,12.20
2017,06,26,13,49,12.20
2017,06,26,13,50,12.30
2017,06,26,13,51,12.30
2017,06,26,13,52,12.30
2017,06,26,13,53,12.30
2017,06,26,13,54,12.30
2017,06,26,13,55,12.20
2017,06,26,13,56,12.20
2017,06,26,13,57,12.20
2017,06,26,13,58,12.10
2017,06,26,13,59,12.10
2017,06,26,14,00,12.10
2017,06,26,14,01,12.30
2017,06,26,14,02,12.50
2017,06,26,14,03,12.70
2017,06,26,14,04,12.80
2017,06,26,14,05,12.90
2017,06,26,14,06,12.90
2017,06,26,14,07,13.00
2017,06,26,14,08,13.00
2017,06,26,14,09,13.10
2017,06,26,14,10,13.20
2017,06,26,14,11,13.20
2017,06,26,14,12,13.10
2017,06,26,14,13,13.10
2017,06,26,14,14,12.90
2017,06,26,14,15,12.80
2017,06,26,14,16,12.70
2017,06,26,14,17,12.60
2017,06,26,14,18,12.70
2017,06,26,14,19,12.70
2017,06,26,14,20,12.60
2017,06,26,14,21,12.70
2017,06,26,14,22,12.80
2017,06,26,14,23,12.90
2017,06,26,14,24,13.10
2017,06,26,14,25,13.50
2017,06,26,14,26,14.00
2017,06,26,14,27,14.30
2017,06,26,14,28,14.40
2017,06,26,14,29,14.70
2017,06,26,14,30,15.10
2017,06,26,14,31,15.40
2017,06,26,14,32,15.40
2017,06,26,14,33,15.70
2017,06,26,14,34,16.30
2017,06,26,14,35,16.60
2017,06,26,14,36,16.80
2017,06,26,14,37,16.90
2017,06,26,14,38,17.10
2017,06,26,14,39,17.00
2017,06,26,14,40,16.90
2017,06,26,14,41,16.70
2017,06,26,14,42,16.80
2017,06,26,14,43,16.70
2017,06,26,14,44,16.50
2017,06,26,14,45,16.40
2017,06,26,14,46,16.60
2017,06,26,14,47,16.70
2017,06,26,14,48,16.50
2017,06,26,14,49,16.60
2017,06,26,14,50,16.50
2017,06,26,14,51,16.60
2017,06,26,14,52,16.80
2017,06,26,14,53,17.00
2017,06,26,14,54,16.80
2017,06,26,14,55,17.00
2017,06,26,14,56,17.10
2017,06,26,14,57,17.20
2017,06,26,14,58,17.30
2017,06,26,14,59,17.30
2017,06,26,15,00,17.30
2017,06,26,15,01,17.40
2017,06,26,15,02,17.40
2017,06,26,15,03,17.60
2017,06,26,15,04,17.90
2017,06,26,15,05,18.20
2017,06,26,15,06,18.30
2017,06,26,15,07,18.50
2017,06,26,15,08,18.70
2017,06,26,15,09,18.60
2017,06,26,15,10,18.60
2017,06,26,15,11,18.50
2017,06,26,15,12,18.50
2017,06,26,15,13,18.40
2017,06,26,15,14,18.30
2017,06,26,15,15,18.30
2017,06,26,15,16,18.20
2017,06,26,15,17,18.20
2017,06,26,15,18,18.10
2017,06,26,15,19,18.10
2017,06,26,15,20,18.10
2017,06,26,15,21,18.10
2017,06,26,15,22,18.20
2017,06,26,15,23,18.10
2017,06,26,15,24,18.00
2017,06,26,15,25,17.90
2017,06,26,15,26,17.80
2017,06,26,15,27,17.80
2017,06,26,15,28,17.80
2017,06,26,15,29,17.80
2017,06,26,15,30,17.70
2017,06,26,15,31,17.40
2017,06,26,15,32,17.30
2017,06,26,15,33,17.30
2017,06,26,15,34,17.20
2017,06,26,15,35,17.10
2017,06,26,15,36,17.00
2017,06,26,15,37,16.80
2017,06,26,15,38,16.70
2017,06,26,15,39,16.60
2017,06,26,15,40,16.50
2017,06,26,15,41,16.50
2017,06,26,15,42,16.30
2017,06,26,15,43,16.40
2017,06,26,15,44,16.60
2017,06,26,15,45,16.80
2017,06,26,15,46,17.00
2017,06,26,15,47,17.00
2017,06,26,15,48,17.00
2017,06,26,15,49,16.90
2017,06,26,15,50,16.80
2017,06,26,15,51,16.70
2017,06,26,15,52,16.70
2017,06,26,15,53,16.70
2017,06,26,15,54,16.60
2017,06,26,15,55,16.60
2017,06,26,15,56,16.70
2017,06,26,15,57,16.80
2017,06,26,15,58,16.90
2017,06,26,15,59,17.00
2017,06,26,16,00,17.10
2017,06,26,16,01,17.00
2017,06,26,16,02,16.90
2017,06,26,16,03,16.70
2017,06,26,16,04,16.50
2017,06,26,16,05,16.20
2017,06,26,16,06,16.20
2017,06,26,16,07,16.40
2017,06,26,16,08,16.70
2017,06,26,16,09,16.90
2017,06,26,16,10,16.90
2017,06,26,16,11,17.10
2017,06,26,16,12,17.20
2017,06,26,16,13,17.30
2017,06,26,16,14,17.30
2017,06,26,16,15,17.50
2017,06,26,16,16,17.90
2017,06,26,16,17,18.60
2017,06,26,16,18,19.00
2017,06,26,16,19,19.10
2017,06,26,16,20,18.90
2017,06,26,16,21,19.10
2017,06,26,16,22,19.30
2017,06,26,16,23,19.40
2017,06,26,16,24,19.60
2017,06,26,16,25,19.80
2017,06,26,16,26,19.80
2017,06,26,16,27,19.50
2017,06,26,16,28,19.60
2017,06,26,16,29,19.30
2017,06,26,16,30,18.90
2017,06,26,16,31,18.70
2017,06,26,16,32,18.30
2017,06,26,16,33,18.00
2017,06,26,16,34,18.00
2017,06,26,16,35,17.80
2017,06,26,16,36,17.80
2017,06,26,16,37,17.70
2017,06,26,16,38,17.80
2017,06,26,16,39,17.80
2017,06,26,16,40,17.70
2017,06,26,16,41,17.70
2017,06,26,16,42,17.60
2017,06,26,16,43,17.40
2017,06,26,16,44,17.30
2017,06,26,16,45,17.40
2017,06,26,16,46,17.70
2017,06,26,16,47,17.60
2017,06,26,16,48,17.60
2017,06,26,16,49,17.60
2017,06,26,16,50,17.60
2017,06,26,16,51,17.60
2017,06,26,16,52,17.50
2017,06,26,16,53,17.40
2017,06,26,16,54,17.40
2017,06,26,16,55,17.40
2017,06,26,16,56,17.30
2017,06,26,16,57,17.30
2017,06,26,16,58,17.30
2017,06,26,16,59,17.30
2017,06,26,17,00,17.20
2017,06,26,17,01,17.00
2017,06,26,17,02,16.80
2017,06,26,17,03,16.60
2017,06,26,17,04,16.40
2017,06,26,17,05,16.40
2017,06,26,17,06,16.40
2017,06,26,17,07,16.40
2017,06,26,17,08,16.40
2017,06,26,17,09,16.40
2017,06,26,17,10,16.50
2017,06,26,17,11,16.40
2017,06,26,17,12,16.40
2017,06,26,17,13,16.40
2017,06,26,17,14,16.30
2017,06,26,17,15,16.30
2017,06,26,17,16,16.30
2017,06,26,17,17,16.30
2017,06,26,17,18,16.40
2017,06,26,17,19,16.60